Wind_Speed
32 39 45 48 48 46 41 35 33 34 36 38 39 39 40 41 42 43 44 45 44 43 43 44 45 47 47 46 45 45 46 45 45 46 47 47 48 48 47 47 48 49 49 50 50 50 49 49 49 50 50 50 50 50 49 49 49 49 51 53 55 56 57 59 60 61 62 63 64 64 66 66 65 64 64 65 66 68 69 70 70 71 73 73 73 73 74 75
29 37 43 48 49 47 44 40 36 35 37 39 41 41 41 40 39 39 40 42 44 44 43 41 41 43 46 48 48 49 49 48 47 47 48 48 49 50 50 51 51 51 51 50 50 50 50 50 50 50 51 51 51 52 52 52 52 53 54 57 60 60 62 63 63 64 63 61 60 61 62 63 63 64 65 67 69 71 72 71 70 71 74 75 76 76 77 79
25 32 40 47 50 48 46 44 41 38 38 39 41 42 43 43 42 41 40 40 41 43 44 42 39 37 38 41 44 46 47 48 49 49 49 49 50 50 51 52 52 53 53 53 52 51 51 51 51 50 51 51 51 53 54 55 55 57 59 61 63 64 65 66 65 63 61 60 59 60 61 62 63 65 67 69 72 74 73 72 72 75 78 79 79 80 81 82
20 27 36 44 49 50 48 47 44 42 41 40 41 42 44 46 46 46 45 44 43 43 45 46 45 43 41 40 40 41 42 44 46 48 49 50 51 51 51 51 52 53 54 54 55 54 54 53 52 52 52 53 53 55 56 58 59 61 62 64 66 66 66 65 63 61 61 61 61 62 63 64 64 65 69 71 75 77 75 74 77 79 80 81 82 83 85 86
17 22 29 38 46 50 50 49 48 46 45 44 43 43 44 46 49 50 50 49 49 48 48 49 49 49 49 47 46 45 45 45 46 48 50 51 52 53 53 54 54 54 55 56 56 57 56 56 56 55 55 56 57 58 59 60 62 64 65 65 65 64 63 62 61 62 62 62 62 63 65 67 68 70 73 75 78 80 78 78 80 81 83 85 86 87 88 89
16 18 23 31 40 47 50 51 50 49 48 48 47 47 45 45 48 50 52 53 53 53 52 52 52 53 53 53 53 53 53 52 52 53 53 53 54 55 55 56 56 56 57 57 57 58 58 58 59 59 59 60 61 62 62 62 62 64 65 63 62 62 62 62 62 63 64 65 67 69 71 72 73 75 77 79 82 82 81 82 84 85 87 88 89 90 90 91
15 16 18 23 31 40 47 51 52 51 51 51 51 51 50 47 47 48 50 52 54 55 56 56 55 56 56 56 57 57 58 58 57 57 57 56 55 55 55 55 56 56 57 57 57 57 57 58 59 60 61 61 62 63 64 64 63 63 63 62 62 63 64 65 67 69 70 72 74 75 76 77 77 78 80 84 87 86 86 86 87 90 90 90 90 91 92 93
15 15 17 19 24 31 39 47 51 52 52 53 53 53 54 53 51 50 50 50 51 53 55 57 58 59 59 60 60 60 61 60 60 60 60 60 59 58 57 56 55 55 56 56 57 57 57 58 59 60 61 61 62 63 65 65 66 65 65 65 66 67 69 72 74 76 76 77 78 78 80 81 82 83 85 88 91 90 88 88 90 92 92 92 93 93 94 95
15 15 16 18 20 24 30 38 45 51 54 54 54 54 55 56 56 54 53 53 53 53 54 55 57 59 60 61 61 61 62 61 61 61 62 62 62 62 61 61 60 59 59 58 58 58 58 58 59 60 61 61 62 63 65 66 67 68 69 70 72 73 75 77 78 80 80 81 81 82 84 85 85 86 88 91 92 91 91 92 94 94 93 94 95 96 96 97
15 16 17 18 19 22 25 30 37 45 51 54 55 55 56 57 58 57 57 57 57 56 56 56 57 58 59 60 60 59 59 60 60 61 61 62 63 63 63 64 64 64 65 65 64 64 64 63 64 64 65 66 66 67 68 69 70 71 73 75 77 79 80 81 82 84 84 84 85 86 87 87 88 89 91 93 94 94 95 96 96 95 95 96 96 98 99 99
16 17 18 19 21 22 24 27 30 35 42 48 53 57 58 58 58 59 59 60 60 60 60 60 61 61 61 61 62 62 62 62 62 62 62 63 64 65 66 66 66 67 68 69 70 71 71 71 70 70 71 72 73 73 74 74 75 76 78 80 82 83 84 86 87 87 87 88 88 89 90 90 91 93 94 95 96 97 97 97 98 98 98 99 100 101 101 101
17 18 19 21 22 23 23 25 27 30 34 39 46 52 56 59 61 61 61 62 62 63 63 64 65 65 65 65 65 66 66 67 67 67 67 67 68 69 70 70 70 71 71 72 73 74 75 76 76 76 76 77 78 78 78 79 79 80 81 83 85 86 87 88 90 91 91 91 92 92 92 92 93 95 96 97 98 99 99 99 100 100 101 101 102 102 102 102
18 19 20 21 22 22 23 24 26 28 30 33 37 42 47 53 58 61 64 64 65 66 66 67 68 69 70 70 70 70 70 70 71 72 72 73 73 73 73 74 74 75 76 77 77 77 78 79 80 81 81 81 82 83 83 83 84 85 86 86 87 89 90 91 93 94 94 95 95 95 94 93 95 97 98 100 101 101 101 102 102 102 102 102 102 103 103 103
18 19 20 21 21 22 23 24 25 26 27 29 32 34 38 42 47 52 57 62 65 68 69 70 71 72 73 74 75 75 75 75 75 75 76 77 77 77 78 78 78 78 80 80 81 82 82 83 83 84 85 86 86 87 87 87 88 89 91 91 91 91 93 95 96 96 97 98 98 98 96 96 97 99 101 102 102 102 102 103 103 103 103 103 103 104 104 104
19 20 20 20 21 22 22 22 23 24 25 26 28 30 32 34 38 41 45 50 55 60 65 68 71 73 75 77 78 79 80 81 80 80 80 80 80 81 81 82 82 82 83 84 84 85 85 86 87 88 89 90 90 90 90 90 91 93 94 93 94 94 94 96 98 99 99 100 100 100 99 99 100 101 102 102 102 103 103 104 104 104 104 104 104 104 103 103
19 19 19 20 20 20 20 20 20 20 21 22 24 25 27 30 32 35 37 41 44 48 52 57 61 65 69 72 75 78 81 83 84 85 86 86 86 86 86 86 87 86 87 87 88 88 89 89 90 91 92 93 93 93 93 93 94 96 96 95 96 96 96 97 99 101 101 101 101 102 101 101 101 101 101 101 102 104 104 104 104 104 104 103 102 102 101 100
18 18 18 18 17 16 16 15 15 16 17 19 20 22 24 26 28 31 33 36 38 41 43 46 49 52 56 59 63 66 69 73 76 78 81 84 86 88 89 90 91 91 91 92 92 92 93 93 93 94 95 96 96 96 96 96 97 98 98 98 98 98 99 99 100 102 103 102 102 102 102 101 102 102 100 101 102 103 104 104 104 103 102 101 100 100 99 99
17 17 16 14 13 12 11 11 12 14 15 17 19 21 23 25 27 29 31 33 35 37 39 41 43 45 47 50 52 55 57 60 63 65 67 70 74 77 81 84 87 90 92 94 95 95 96 96 97 97 98 98 98 99 99 98 99 99 100 100 99 100 100 100 101 101 101 101 101 101 101 100 101 101 100 99 99 100 101 101 101 101 100 99 99 99 99 99
15 13 11 10 9 9 9 10 12 13 15 17 19 21 23 24 26 28 30 32 34 36 38 40 41 43 44 46 48 49 51 53 55 57 58 60 62 65 68 71 75 79 83 86 89 91 93 94 96 96 97 98 98 99 99 99 98 98 98 98 98 98 97 98 99 99 99 98 98 98 98 98 98 97 97 96 96 96 97 98 98 99 99 99 99 99 100 100
11 9 7 6 7 8 10 11 13 14 16 17 19 21 23 25 27 28 30 32 34 35 37 39 40 42 43 44 45 47 47 48 50 51 52 53 54 56 58 61 63 67 71 74 78 81 84 86 88 90 91 93 94 94 95 95 95 95 95 94 94 93 93 94 94 94 95 94 93 94 94 94 93 93 93 93 94 94 95 96 97 98 99 100 100 100 101 102
7 5 4 6 8 9 11 13 14 16 18 19 21 23 24 26 28 30 31 33 35 36 37 39 40 42 43 44 45 45 45 46 47 47 48 49 49 50 52 53 55 57 60 64 67 70 74 76 79 81 83 85 86 87 88 89 89 89 89 88 88 88 88 88 88 89 90 90 89 90 91 91 90 90 91 92 92 93 94 96 97 99 100 101 102 103 103 104
3 4 5 7 9 11 13 15 17 19 20 22 24 25 27 28 30 31 33 34 36 37 38 40 41 42 43 44 44 45 45 45 45 46 47 46 47 48 48 49 50 51 53 56 58 60 63 66 68 71 73 75 77 79 80 80 81 82 83 82 82 83 83 83 84 85 86 86 87 88 89 89 89 89 91 91 92 93 95 97 98 100 101 102 103 104 105 106
3 5 7 9 11 13 15 16 18 20 22 24 25 27 29 30 32 33 35 36 38 39 40 41 42 43 44 44 44 44 45 46 45 46 46 46 46 46 46 47 48 49 50 51 52 54 56 58 60 62 64 66 68 70 71 72 74 75 77 77 77 79 80 79 80 82 83 84 85 87 88 88 89 90 91 92 93 95 96 98 99 101 101 102 103 103 103 103
5 8 10 12 13 15 16 18 20 21 23 25 27 29 31 33 35 36 37 38 39 40 41 41 42 42 43 43 43 43 44 45 45 46 46 45 46 46 46 47 47 48 49 50 51 52 53 55 57 59 60 62 64 65 66 67 69 72 73 74 75 76 78 78 79 80 82 84 86 87 88 89 90 91 92 93 95 96 97 97 98 98 99 99 99 99 99 99
8 10 11 13 14 16 17 20 22 24 27 29 31 33 35 37 38 39 39 40 40 41 41 41 41 40 41 41 42 42 42 43 44 44 45 45 45 46 46 47 48 48 50 50 52 53 54 56 57 58 60 61 63 64 66 67 68 71 73 74 75 76 78 80 81 82 83 85 87 90 91 90 89 90 91 92 92 92 93 93 93 94 95 95 96 96 97 98
10 11 12 14 16 18 20 23 26 29 32 34 35 37 38 39 40 40 40 41 41 41 41 40 39 38 38 37 38 38 39 40 41 42 43 44 44 46 47 48 49 50 51 52 53 55 56 57 58 60 61 62 64 65 67 68 70 72 74 75 77 78 80 82 83 84 84 85 87 89 90 87 84 84 85 87 88 88 89 90 91 92 93 94 95 95 96 97
10 12 14 16 18 21 24 27 30 33 35 37 38 39 40 41 42 42 42 42 41 40 38 36 36 34 33 33 33 33 34 35 36 37 39 40 42 44 45 47 49 50 52 53 55 57 58 59 60 61 63 64 66 67 69 70 72 74 75 77 78 79 80 80 81 81 81 81 81 83 85 82 79 79 81 83 85 86 87 88 89 90 90 91 92 92 93 94
12 15 17 20 23 26 29 31 34 36 37 39 40 41 42 43 43 43 42 41 38 35 33 32 32 31 30 29 28 28 28 29 30 31 33 34 36 39 41 43 46 48 50 52 54 56 58 59 60 61 63 64 65 66 67 68 69 70 71 72 73 73 74 74 74 75 75 75 76 78 80 79 77 77 78 80 81 83 84 85 86 87 87 88 89 90 91 93
15 18 21 24 27 29 32 34 36 38 39 41 42 43 44 44 44 42 39 35 32 31 29 28 28 28 28 28 27 26 26 26 27 28 28 29 31 33 35 37 39 42 44 46 48 51 53 54 55 56 57 58 59 60 61 62 63 64 65 66 67 67 67 68 69 70 71 71 72 73 75 75 73 73 76 78 79 81 83 84 85 86 88 89 90 91 93 94
18 21 24 27 29 32 34 36 38 40 42 43 44 44 45 44 42 38 33 30 28 28 27 26 25 25 26 27 28 27 26 26 26 27 28 28 29 30 31 33 35 37 39 41 43 44 46 48 49 51 52 53 54 55 56 58 58 59 60 60 61 62 62 62 64 65 67 68 69 71 73 74 73 73 76 79 80 82 84 86 87 88 90 91 92 94 95 96
20 24 27 29 32 34 36 38 40 42 44 45 45 45 45 42 36 32 29 27 26 26 26 26 25 25 24 25 26 27 27 27 27 27 28 29 30 31 32 33 35 36 39 41 43 43 44 45 46 48 48 49 51 52 53 54 55 55 56 57 57 58 59 60 62 64 66 68 70 72 74 76 77 77 79 81 83 85 86 88 89 91 92 94 95 96 98 99
23 26 29 32 34 36 38 39 42 45 46 46 46 45 41 35 31 29 27 26 25 26 26 26 26 26 26 26 27 27 28 29 29 29 29 30 31 32 33 34 35 36 38 41 43 45 44 44 44 44 45 46 47 49 51 53 55 56 57 59 59 60 60 61 64 66 67 70 72 75 77 78 80 82 83 84 86 87 89 90 92 93 95 96 97 99 100 102
26 29 32 34 37 38 40 42 45 46 46 46 45 41 34 30 28 28 27 26 26 26 27 28 28 28 29 29 29 29 29 29 30 30 30 30 30 30 31 31 32 32 33 36 39 43 45 44 45 45 46 47 48 50 53 55 58 60 61 63 64 65 65 65 66 68 68 70 73 77 80 81 83 85 87 88 90 91 92 94 95 97 98 99 101 102 104 105
28 31 34 36 38 39 42 45 46 46 47 45 40 34 30 28 28 28 28 28 28 27 28 28 29 29 29 29 28 28 28 27 27 27 27 28 28 28 29 29 30 31 32 33 36 41 44 45 46 48 49 51 53 55 57 59 61 63 65 66 68 70 70 70 70 71 71 71 73 78 82 84 86 88 90 92 94 95 96 98 99 100 102 103 105 106 107 108
30 33 36 38 39 41 44 46 46 47 45 40 34 30 28 28 29 29 29 29 29 28 28 27 27 27 27 27 27 27 26 26 26 26 27 27 28 29 29 30 31 32 33 35 38 42 47 49 49 51 53 54 57 59 60 62 64 66 67 69 71 73 74 75 76 77 77 75 75 79 83 86 88 90 92 95 96 98 99 101 102 104 105 107 108 109 110 110
32 35 37 39 41 43 45 46 47 45 40 33 30 29 29 29 29 29 29 28 28 27 26 26 25 25 25 25 26 26 26 27 27 28 28 29 29 29 30 31 33 35 37 39 41 45 50 53 53 54 56 58 60 62 63 65 66 68 69 71 73 75 77 78 79 81 82 81 79 82 85 88 91 92 95 98 99 101 103 104 106 107 109 110 112 112 113 113
35 37 39 40 42 44 45 46 45 39 33 30 30 30 30 30 29 29 28 27 27 26 26 25 25 25 25 25 26 27 27 27 27 28 28 29 30 32 33 35 37 39 41 43 45 47 51 55 57 57 59 61 63 64 66 67 68 70 71 73 75 77 79 82 83 84 86 86 85 86 89 92 95 96 98 100 102 104 105 106 108 109 110 112 112 112 112 113
37 39 40 42 44 45 46 46 40 33 30 30 30 30 30 29 29 27 27 26 26 26 26 25 26 26 26 26 26 26 27 28 28 29 31 33 35 36 38 40 41 43 45 47 49 50 52 56 58 59 60 63 65 66 68 70 71 73 75 77 79 80 82 85 88 89 90 90 90 89 91 94 97 99 100 101 103 104 105 105 106 107 108 109 110 109 110 111
38 40 42 43 44 46 46 41 34 30 30 30 30 30 29 28 27 26 26 26 25 25 26 26 26 27 26 26 25 25 27 29 31 34 36 38 39 41 43 45 46 47 48 50 52 53 54 57 59 61 62 64 66 68 71 73 75 78 80 83 85 86 87 89 92 94 96 96 95 93 91 92 95 98 99 100 100 101 101 102 103 104 105 106 106 106 107 108
40 42 43 44 46 46 42 34 30 30 31 31 30 29 27 26 26 25 25 25 25 26 26 27 27 27 26 27 27 28 30 33 35 37 40 41 43 44 46 48 49 51 52 53 55 56 57 58 61 63 65 67 69 71 74 76 78 80 83 85 87 89 91 92 94 97 99 99 99 96 93 91 92 95 96 97 98 98 99 100 100 101 103 103 104 105 105 106
42 43 44 46 47 44 36 31 31 32 32 31 29 27 26 25 25 25 25 25 26 26 26 26 26 27 28 29 31 33 35 37 40 41 43 45 46 47 49 50 52 54 55 56 58 59 60 61 63 65 68 71 73 75 78 80 82 84 85 87 89 90 92 93 93 94 96 97 98 97 95 93 93 94 95 96 96 97 98 99 99 100 100 101 101 102 102 102
43 44 46 47 45 39 33 32 33 32 31 29 27 26 25 25 24 24 24 25 25 25 24 24 25 28 30 33 35 37 39 41 43 45 46 47 49 50 52 53 54 56 57 58 60 62 63 65 67 69 72 74 76 78 82 84 85 87 89 91 92 93 93 93 92 91 92 93 94 95 95 95 95 96 96 96 97 97 98 98 99 100 100 100 101 101 101 101
44 45 47 46 41 34 32 33 33 31 29 27 26 25 24 24 24 24 24 24 24 23 24 25 27 30 33 36 38 40 42 44 45 46 48 49 51 53 54 55 57 58 60 61 63 66 67 68 70 72 76 78 80 82 85 88 89 90 91 91 91 91 91 90 90 89 90 91 92 93 94 95 96 96 97 97 97 97 97 97 98 98 98 99 99 100 100 100
45 46 47 43 36 33 33 33 31 29 27 26 25 24 24 24 24 24 24 24 24 25 26 29 31 34 36 39 41 43 45 46 47 48 50 52 54 55 56 58 59 61 64 66 68 70 72 73 74 75 77 79 81 82 85 88 89 90 89 88 87 87 87 88 88 89 90 91 92 93 93 94 95 95 95 95 95 95 95 95 95 95 95 95 95 96 96 96
46 47 45 39 34 33 33 31 29 27 25 25 24 24 23 23 23 23 23 24 26 28 30 33 35 38 40 42 44 46 47 48 50 51 53 55 56 57 59 61 63 66 68 70 72 74 77 78 79 79 81 82 83 83 84 85 86 86 85 85 84 85 86 87 88 88 88 88 90 91 91 90 91 92 92 92 92 92 92 93 93 94 94 94 93 93 93 93
46 47 42 36 33 33 32 29 27 26 25 24 23 23 23 23 22 23 24 26 28 31 33 36 39 41 43 45 47 49 50 51 53 54 56 57 59 60 62 65 67 69 71 73 75 77 80 82 84 84 86 88 88 88 87 86 86 85 84 84 84 84 85 86 87 86 85 84 85 87 87 87 88 89 89 89 90 90 91 91 91 90 90 90 90 90 90 90
46 44 38 34 33 32 29 28 26 25 24 23 22 22 22 22 22 23 25 27 30 33 36 39 41 43 46 48 50 52 53 55 56 58 59 60 62 64 66 68 70 72 74 76 77 79 82 84 87 88 90 91 90 89 88 87 85 84 84 83 83 84 85 85 85 84 82 82 81 83 84 85 85 86 88 88 88 88 89 88 87 87 87 87 88 88 88 88
45 40 35 33 33 30 28 26 25 24 23 22 22 22 22 22 23 25 28 30 33 36 38 41 43 45 47 50 52 54 56 58 59 60 61 63 64 67 69 71 73 74 76 78 79 81 83 85 88 90 90 90 88 87 86 85 84 83 83 82 82 82 82 82 82 81 80 80 81 81 82 84 85 87 88 89 89 88 88 88 87 86 86 86 87 87 87 86
42 36 33 33 31 28 26 25 23 23 22 22 22 22 22 24 26 28 31 34 36 39 41 43 45 47 49 51 53 55 57 58 60 61 63 65 67 69 71 73 74 76 78 79 81 82 84 87 89 89 88 87 86 84 83 82 82 82 82 81 80 79 79 79 80 78 77 79 81 82 83 85 87 88 89 89 89 89 90 90 89 88 87 87 86 86 86 85
38 34 33 31 28 26 25 23 23 22 22 21 22 23 25 27 29 32 34 37 39 41 43 45 47 49 51 52 54 56 57 58 60 62 65 67 69 71 72 74 76 77 79 80 82 84 86 87 87 86 85 84 83 82 81 81 81 81 80 78 77 76 75 76 78 77 75 76 79 80 82 83 85 86 87 88 88 89 90 89 89 89 87 85 84 84 84 84
34 33 32 29 26 25 23 23 22 22 22 22 23 25 27 29 32 34 37 39 41 44 46 48 50 51 53 55 56 57 58 60 62 64 67 69 70 72 74 75 77 78 80 82 84 86 86 85 84 82 82 81 79 79 78 78 78 78 77 75 73 72 72 74 77 77 75 75 76 78 80 81 82 83 84 85 86 87 88 87 85 85 84 83 82 81 81 81
33 32 29 26 25 24 23 22 22 22 22 23 25 27 29 31 34 36 39 42 44 46 48 50 52 54 55 57 57 58 60 62 65 67 69 70 72 74 75 77 78 79 81 84 85 85 84 82 80 78 77 77 77 77 77 77 76 75 73 71 69 69 70 72 75 75 74 75 76 77 79 81 81 82 82 82 83 83 84 83 81 81 80 80 79 79 78 78
Wind_Direction
208 206 207 209 211 212 208 207 212 215 217 220 224 226 226 229 231 232 232 232 232 235 238 240 240 240 241 242 242 244 245 246 248 248 248 248 249 249 250 251 253 254 254 253 252 252 253 254 253 252 252 252 252 251 252 254 256 258 259 261 264 268 270 269 268 268 269 269 268 268 268 268 269 270 271 272 272 273 273 274 277 278 278 278 278 279 280 280
213 209 208 210 212 213 211 209 210 213 216 218 221 225 224 224 225 228 232 234 235 236 239 242 244 245 245 244 244 244 244 245 247 248 249 249 250 250 251 252 253 254 254 254 253 253 254 255 255 255 254 254 254 254 255 257 259 261 263 264 266 268 269 269 269 270 270 269 270 270 269 270 271 273 274 274 274 274 274 275 277 277 277 277 278 279 280 280
218 214 211 211 212 214 213 211 211 212 214 216 220 224 225 223 222 222 225 228 230 234 237 238 238 241 243 244 245 245 246 247 248 249 250 250 251 252 253 253 254 255 255 255 254 254 255 256 257 258 258 259 259 259 260 262 263 264 265 266 267 267 268 269 270 270 270 270 272 273 273 273 273 274 274 274 274 274 274 276 277 277 277 279 279 280 280 280
223 220 216 214 214 215 215 213 213 213 213 214 217 222 224 225 225 224 224 224 226 229 234 236 236 234 236 238 240 242 246 249 251 253 253 253 253 254 255 256 257 257 257 258 258 258 259 259 259 260 261 262 262 263 263 263 264 265 265 266 267 267 269 269 269 270 272 273 274 275 275 274 274 274 274 274 275 275 277 278 278 278 278 279 279 280 280 281
227 225 222 219 217 217 217 215 215 215 215 215 216 219 223 227 229 228 227 226 227 229 232 234 236 236 236 237 239 240 243 247 251 255 256 256 256 256 257 259 260 261 260 260 261 261 261 262 262 262 262 263 263 263 263 264 264 265 265 266 268 269 270 270 270 271 272 273 273 274 274 274 275 275 275 275 276 277 278 278 278 278 278 279 279 280 281 281
233 231 228 225 223 221 221 220 218 218 218 218 219 220 221 225 229 231 230 230 230 231 232 234 235 236 237 239 240 242 244 247 250 253 255 257 258 259 260 261 263 263 263 262 262 261 261 261 261 261 261 261 262 263 264 265 266 266 266 267 268 268 268 268 268 268 269 270 272 274 274 275 275 276 276 276 276 277 278 278 278 278 278 279 280 281 281 282
239 238 236 232 229 227 226 226 224 222 221 222 222 223 223 225 227 230 232 233 234 235 235 235 236 237 238 240 242 244 246 249 251 252 253 255 257 259 261 263 264 265 265 265 265 264 263 263 263 263 262 262 263 264 265 267 267 266 265 265 265 264 264 265 267 268 270 272 273 275 275 276 276 276 277 276 277 278 278 279 279 279 279 280 281 281 282 282
247 245 243 240 237 233 232 231 231 229 227 226 226 226 226 228 229 231 232 234 236 238 239 240 240 241 242 244 246 248 250 252 253 253 254 254 255 256 258 259 261 263 264 264 265 265 264 264 264 263 263 263 263 264 264 265 265 264 263 263 263 263 265 267 269 271 273 274 275 276 276 277 277 277 277 277 278 279 280 279 279 279 281 281 282 282 282 282
255 254 251 248 244 241 238 236 236 235 234 232 231 230 230 231 232 234 235 235 237 239 241 243 245 245 246 248 250 252 253 255 256 256 256 257 257 257 257 257 257 258 260 260 260 261 261 261 261 260 260 261 260 261 261 262 262 262 263 264 265 266 268 269 271 272 274 275 276 276 277 277 278 278 278 278 279 280 280 279 280 281 282 282 282 282 281 281
260 260 259 256 252 248 244 241 239 239 239 239 238 237 236 235 235 236 237 238 239 240 241 243 246 247 249 250 250 251 253 255 256 257 257 257 257 258 258 258 258 257 257 258 258 259 260 259 259 259 259 259 260 260 261 262 263 264 265 266 268 269 270 271 272 273 274 275 276 277 277 278 278 278 279 279 280 280 280 280 281 281 281 281 281 281 281 281
264 264 263 261 258 254 251 249 247 246 245 244 244 244 243 242 241 240 240 241 242 242 243 244 245 247 249 250 251 251 252 253 254 255 256 256 255 256 257 257 258 258 257 258 258 259 260 261 261 261 261 261 261 262 262 263 264 265 267 268 269 270 271 272 274 275 275 276 277 277 278 278 279 279 279 280 280 280 280 280 281 281 281 281 281 281 281 282
269 268 267 265 263 262 260 258 256 253 251 249 249 248 248 248 247 247 246 246 246 246 246 246 246 248 249 251 252 253 253 253 254 255 256 256 256 256 257 257 257 258 259 259 259 259 260 261 262 263 263 264 264 264 265 266 267 268 268 269 270 271 272 273 274 275 276 277 277 277 278 278 279 279 279 279 279 280 280 281 281 281 281 281 281 282 282 282
274 273 272 270 269 268 266 263 260 259 257 256 255 254 253 253 252 252 252 252 251 251 250 250 250 250 250 251 252 253 254 255 255 255 256 257 258 258 258 258 258 259 259 260 261 261 262 262 263 264 265 265 266 267 267 268 269 270 270 271 272 273 274 274 275 276 277 277 277 277 278 278 278 279 279 279 280 280 281 281 281 281 281 281 282 282 282 282
279 277 276 275 273 271 269 267 266 265 264 263 261 260 259 258 257 256 256 256 256 256 256 256 255 254 254 254 254 254 254 255 256 257 257 257 258 259 259 260 260 260 260 260 261 262 263 263 264 265 265 266 266 267 268 269 270 271 271 272 273 274 275 275 276 276 276 277 277 277 278 278 278 279 279 280 281 281 281 281 281 281 281 282 282 282 282 283
282 281 279 277 274 273 272 272 271 271 270 269 267 266 264 263 262 261 260 260 259 259 260 260 260 260 260 259 258 258 257 257 257 258 258 259 259 259 260 261 261 261 261 261 262 262 263 264 264 265 266 266 267 268 269 270 270 271 272 273 274 274 275 275 276 276 277 277 278 279 279 279 279 280 280 281 281 281 281 281 282 282 282 282 282 283 282 282
283 280 277 275 274 274 274 274 273 273 272 272 271 270 269 268 267 266 266 264 264 263 263 263 263 263 263 263 263 262 262 262 261 260 260 260 261 261 261 261 262 262 262 263 263 264 264 265 265 266 267 267 268 269 269 270 271 271 272 273 273 274 275 275 276 276 277 278 279 279 280 280 280 280 281 281 281 281 281 282 282 282 282 283 283 283 282 282
281 277 275 274 273 272 271 272 273 273 274 275 275 274 274 273 272 272 271 270 268 267 267 267 266 266 266 266 266 266 266 266 265 264 263 263 263 262 262 262 262 262 263 263 264 264 265 266 266 267 267 268 269 269 270 270 271 272 272 273 273 274 275 275 276 277 277 278 279 279 280 280 280 281 281 281 281 282 282 282 282 282 282 283 283 282 283 282
278 276 274 271 268 269 272 275 277 280 281 282 283 282 281 279 278 277 276 275 273 271 270 269 269 269 269 268 268 268 268 268 268 267 267 266 265 264 263 263 262 262 262 263 263 264 265 265 266 267 267 268 269 269 270 270 271 271 272 273 274 274 275 275 276 276 277 278 279 279 280 280 281 281 281 282 282 282 282 283 283 283 283 283 283 283 283 283
275 271 267 266 271 279 283 286 288 290 291 290 290 290 289 287 285 284 282 280 278 276 274 272 271 270 270 270 270 270 269 270 270 269 269 268 267 266 265 264 263 262 262 263 263 264 264 265 265 266 267 268 268 269 270 270 271 271 272 273 274 275 275 276 276 277 277 278 278 279 279 280 280 281 282 282 282 282 282 283 283 283 283 283 283 283 283 283
269 264 267 280 291 295 297 300 301 300 299 298 298 298 296 295 293 291 288 286 284 281 279 277 275 273 272 271 271 271 271 270 270 270 270 269 269 268 267 266 265 264 263 263 263 264 264 265 265 266 267 268 269 269 270 271 271 272 273 273 274 274 275 276 276 277 277 278 278 278 279 279 280 281 281 282 282 282 282 283 283 283 283 284 284 284 283 283
264 275 298 306 306 307 308 308 306 304 303 303 303 302 301 299 297 295 292 290 288 286 283 281 279 277 275 274 273 272 272 272 271 271 270 270 270 269 269 268 267 266 265 265 264 265 265 265 266 267 267 268 269 270 271 272 272 273 273 274 274 274 275 275 276 276 277 277 278 278 279 279 280 280 280 281 281 282 283 283 284 284 284 284 284 284 284 283
291 315 313 310 312 313 313 311 309 307 307 308 307 305 303 301 299 296 295 294 292 290 287 285 283 281 279 277 276 275 275 274 274 273 273 272 271 271 271 271 270 270 269 268 268 267 267 267 267 268 268 269 270 271 272 272 273 273 274 274 275 275 275 275 276 276 277 277 278 278 279 279 280 280 280 281 282 283 283 284 284 284 284 284 284 284 284 283
324 315 311 313 314 314 314 313 312 312 313 313 311 309 306 304 303 301 299 298 296 293 290 288 286 284 282 281 280 279 278 278 277 277 276 276 276 275 274 274 273 273 272 271 271 270 270 270 270 270 270 271 272 272 273 274 274 275 275 275 276 276 276 276 277 278 278 279 279 279 280 281 281 281 282 283 284 284 284 284 284 284 283 283 283 283 283 283
318 315 315 316 316 316 316 316 317 318 318 316 314 313 312 311 309 306 304 302 299 296 294 291 288 287 285 284 283 281 280 280 279 279 279 279 279 279 279 278 277 276 275 274 274 273 273 272 272 272 273 273 273 274 275 275 276 276 277 277 277 278 278 279 279 280 281 282 282 282 282 283 283 284 285 285 284 284 284 284 283 283 283 283 283 283 284 284
323 321 320 320 321 323 323 324 324 323 323 322 321 320 318 316 312 310 308 305 303 300 298 295 293 291 289 287 285 283 281 280 279 279 279 279 280 280 280 280 280 279 279 279 278 277 277 276 276 276 276 277 277 277 278 278 279 279 280 280 281 281 282 282 282 283 283 284 284 285 284 284 285 286 286 285 284 284 284 284 283 283 283 284 284 284 284 284
327 326 328 329 329 331 331 330 329 329 328 326 324 322 319 317 314 312 311 309 307 305 302 300 298 296 294 291 289 287 284 282 281 280 279 279 279 279 279 280 280 281 281 281 281 281 281 281 280 280 280 281 281 281 282 282 282 283 283 284 284 284 285 285 285 286 286 286 286 285 285 285 286 285 285 285 285 284 284 284 283 283 283 283 283 283 283 283
334 336 336 334 335 336 335 334 332 331 329 326 324 322 320 318 316 314 313 312 310 307 306 305 303 301 299 297 295 293 290 288 286 284 282 281 280 279 279 280 280 280 281 281 282 282 282 282 282 283 283 283 284 284 284 284 284 285 285 285 286 286 286 286 287 287 287 287 287 286 286 287 287 286 285 285 285 284 284 284 283 283 283 283 282 282 282 282
343 341 339 339 339 338 336 335 332 329 327 325 324 322 320 319 317 316 315 313 312 310 310 309 308 307 306 304 302 300 299 296 294 292 289 288 286 284 284 283 283 282 283 283 283 283 284 284 284 285 285 285 285 286 286 286 286 286 286 286 287 287 287 288 288 288 288 288 288 288 288 289 288 288 287 285 285 284 284 283 283 283 283 282 282 282 282 282
344 342 341 341 339 338 336 333 330 328 327 326 324 322 321 320 319 318 317 315 313 312 312 311 311 311 311 311 310 309 307 305 303 300 298 295 293 291 290 288 288 287 286 286 285 286 286 286 287 287 288 288 288 289 288 288 288 288 288 288 289 289 289 290 290 290 290 290 289 289 289 289 289 288 287 285 285 284 284 284 284 283 283 283 283 283 283 283
343 342 341 340 338 337 335 332 330 329 327 325 324 323 322 321 320 320 319 317 314 312 311 311 311 312 313 314 315 314 313 312 310 308 306 304 301 299 297 295 293 292 291 290 289 289 290 290 291 291 292 292 292 292 292 291 291 291 291 291 291 292 292 292 292 291 291 291 290 290 289 289 289 288 287 287 286 286 285 285 285 285 285 284 284 284 283 283
342 341 339 339 338 336 333 331 330 328 326 324 324 323 322 322 321 321 320 318 315 313 312 313 314 314 314 315 315 316 315 314 313 311 310 308 307 305 303 301 300 299 298 296 294 293 293 294 294 294 295 296 296 295 294 294 293 293 292 292 292 292 292 293 292 292 292 292 292 292 291 291 290 289 288 287 287 286 286 285 285 285 284 284 284 283 283 283
341 340 339 339 337 334 332 330 328 326 325 324 324 324 323 322 322 321 321 320 319 318 318 318 319 319 318 318 318 318 317 316 314 313 311 310 308 307 306 306 306 305 305 304 302 300 299 299 299 299 299 299 299 299 298 298 297 296 296 295 294 293 293 294 294 294 294 294 294 293 292 291 291 290 289 288 287 286 286 286 286 285 285 285 284 284 284 283
340 339 340 338 335 333 331 329 327 325 325 325 325 325 324 323 322 322 322 322 323 323 322 322 322 322 322 322 321 320 320 318 317 317 316 315 314 313 313 312 312 311 311 311 311 309 307 307 307 306 306 305 303 302 302 301 301 300 300 299 298 296 295 294 293 293 293 293 294 293 293 292 292 291 291 290 289 288 288 288 287 287 287 286 286 285 285 285
338 339 339 336 334 332 330 327 325 325 326 326 326 326 325 324 324 324 324 324 325 325 325 325 325 324 324 324 324 324 324 323 323 322 321 320 320 319 319 318 318 317 316 315 314 312 310 309 309 309 308 307 306 304 303 302 302 301 301 300 299 298 296 295 294 293 292 292 294 293 293 293 292 292 292 291 290 290 290 289 289 289 288 287 287 286 286 286
337 339 337 334 333 331 328 326 326 327 327 327 327 327 326 326 325 325 325 326 326 327 328 328 329 329 329 330 330 330 330 329 329 329 329 328 328 327 326 324 323 320 318 317 316 314 311 309 309 309 308 307 306 305 304 303 303 302 302 301 301 301 300 299 298 297 295 295 294 294 293 293 293 292 292 291 291 291 290 290 290 289 288 288 287 287 287 287
338 337 335 333 332 329 327 327 328 328 328 329 329 328 327 326 326 326 327 328 329 330 331 332 333 333 333 333 334 334 336 336 336 336 335 333 331 329 326 323 321 319 317 316 315 314 313 310 309 310 310 308 307 306 305 305 305 304 304 304 303 302 302 301 300 299 298 298 297 296 295 295 294 293 293 292 292 292 291 291 290 290 289 289 288 288 288 288
337 335 334 333 330 327 328 329 329 329 329 330 329 328 327 327 327 328 330 331 333 334 335 336 336 337 338 339 341 342 341 340 339 336 332 330 327 325 323 321 319 318 317 316 315 314 314 312 311 311 311 310 309 308 308 307 306 306 305 304 303 303 303 302 301 300 300 300 299 298 297 296 295 295 294 293 292 291 291 291 290 290 289 289 288 289 288 288
335 335 334 331 328 329 330 330 329 330 330 330 329 328 329 329 330 332 333 335 337 337 338 339 341 343 345 346 346 344 341 338 335 332 329 327 326 324 323 321 320 319 318 317 316 315 314 313 312 312 312 311 310 310 309 308 308 307 306 305 305 305 304 304 303 302 301 301 300 299 298 297 296 295 294 293 292 291 291 291 290 290 290 289 289 289 289 288
335 334 331 329 330 331 330 330 331 332 331 331 330 330 331 332 333 336 338 339 340 341 342 345 347 348 348 345 342 339 336 334 332 331 329 328 327 325 324 322 321 320 319 318 317 316 315 315 314 314 313 312 311 311 310 310 310 310 309 308 308 307 307 306 305 304 303 302 301 299 298 297 296 295 294 293 293 293 292 292 292 291 291 291 290 290 289 289
335 332 330 331 332 331 331 331 332 332 332 332 332 332 333 335 338 340 341 342 343 346 348 349 348 346 343 339 337 335 334 332 331 330 329 327 326 325 324 323 322 321 320 320 319 318 317 317 316 315 315 314 313 313 312 311 311 310 309 309 308 307 307 306 305 304 303 302 302 301 300 299 297 296 295 295 295 295 294 294 294 293 293 292 292 291 291 290
333 331 332 333 332 331 332 333 334 334 334 333 332 334 336 339 342 342 343 346 349 351 350 348 344 340 338 337 335 334 333 333 331 330 328 327 326 325 324 323 323 323 322 322 321 320 319 318 318 317 316 315 315 314 313 312 311 310 310 309 308 307 306 305 304 304 303 303 303 302 302 301 300 299 298 298 298 297 297 296 296 295 295 294 293 293 292 292
331 332 333 333 332 333 334 335 335 334 333 333 335 338 340 342 343 345 348 351 352 350 345 341 339 337 336 335 334 334 333 332 331 329 328 327 326 326 325 325 325 324 323 322 322 321 320 320 320 319 317 316 315 315 314 313 312 312 311 310 309 308 307 307 306 305 304 303 303 303 303 303 302 301 301 301 301 301 300 300 299 299 298 298 297 296 296 295
332 333 333 332 333 334 335 335 334 333 334 336 339 342 343 344 346 349 351 350 347 342 338 336 336 335 335 335 334 333 332 331 330 329 328 327 327 327 327 327 326 325 325 324 323 323 322 321 320 319 318 317 316 316 315 314 313 312 311 311 310 309 308 307 307 306 305 305 304 304 304 304 304 304 303 303 303 302 302 301 300 299 298 298 297 297 296 295
333 332 332 333 335 335 335 334 333 335 337 339 343 345 346 348 351 351 348 344 340 337 336 335 335 335 335 335 334 332 331 330 330 329 329 329 329 329 329 328 328 327 327 326 325 324 322 321 320 319 318 316 316 315 314 313 312 311 311 310 310 309 309 308 308 308 308 307 306 306 306 305 304 304 303 303 302 302 301 301 300 299 299 298 297 297 296 295
332 332 334 335 335 335 334 334 335 338 339 343 346 347 348 350 350 347 342 339 337 336 336 336 336 336 335 334 333 332 331 331 331 331 331 331 331 331 330 330 329 329 328 327 326 324 323 321 321 320 318 317 316 315 314 313 313 312 313 312 312 312 311 310 310 309 308 307 306 305 305 305 304 304 303 303 303 303 303 303 303 302 302 301 300 299 298 297
332 333 334 335 334 334 334 335 337 339 343 347 348 348 349 349 345 340 337 335 334 335 336 336 336 336 335 334 333 332 332 332 333 333 334 333 332 332 332 331 331 330 328 327 326 324 323 322 321 321 320 319 319 318 318 317 316 316 316 315 315 314 312 311 309 308 308 307 306 305 305 305 305 305 306 306 306 306 306 305 304 303 303 302 301 301 300 299
332 334 334 334 334 334 335 337 340 343 347 348 348 348 348 344 338 334 332 331 333 334 336 336 336 336 335 334 334 333 334 334 335 335 335 334 334 333 333 332 331 330 328 327 326 325 323 322 321 321 321 320 320 320 320 319 319 318 317 317 315 314 312 311 309 309 309 308 307 307 307 307 308 308 308 308 308 307 306 306 305 305 305 305 304 303 303 302
333 334 334 334 334 335 337 340 343 346 348 348 347 346 342 335 331 329 330 332 334 335 336 336 335 335 334 334 334 335 335 336 336 336 335 335 334 333 333 332 331 330 328 327 326 325 324 323 322 322 322 321 321 321 321 320 319 318 317 316 315 314 312 311 310 310 311 311 310 310 311 311 312 312 311 310 310 309 309 309 309 309 309 308 307 306 305 304
333 333 333 334 335 337 339 343 346 347 347 347 344 339 333 330 330 331 333 335 335 336 336 335 335 335 335 335 335 336 337 336 336 336 335 335 334 334 333 332 331 329 328 327 326 325 324 323 323 322 322 322 322 322 321 320 319 318 317 317 316 315 315 314 313 314 315 315 315 315 315 314 314 313 313 312 313 313 313 312 312 312 311 310 309 308 307 306
333 333 334 335 337 339 342 345 347 347 346 343 337 332 330 330 333 334 335 336 336 336 336 335 335 335 335 336 337 337 337 337 336 336 336 335 334 333 332 331 330 329 328 326 326 325 325 324 324 324 324 323 323 322 322 321 319 319 318 318 318 318 318 317 315 316 318 317 316 316 315 314 313 313 314 314 315 314 314 314 313 313 312 311 310 309 308 308
333 334 334 336 338 342 344 346 347 346 342 337 333 331 331 332 334 335 335 336 336 336 335 335 336 336 337 338 338 338 338 338 337 337 336 335 334 333 332 331 330 329 328 327 326 326 326 326 326 325 325 324 323 323 322 321 320 319 320 321 322 321 321 320 318 318 319 318 316 315 314 314 314 315 316 316 316 314 313 313 313 312 312 311 311 310 310 310
333 334 335 338 341 344 345 346 345 342 337 334 332 331 331 332 333 335 335 336 335 335 336 336 337 338 338 339 339 339 339 338 338 337 336 335 334 333 332 331 330 329 328 327 327 327 327 327 327 326 325 324 324 323 323 322 322 322 323 323 323 323 323 322 320 319 320 318 317 316 316 316 317 317 317 317 315 314 313 313 313 313 313 313 313 312 312 311
Height
10705 10706 10709 10711 10714 10716 10718 10719 10720 10721 10723 10725 10726 10728 10729 10730 10731 10732 10733 10734 10734 10734 10734 10734 10735 10736 10737 10737 10738 10739 10739 10740 10740 10740 10741 10741 10741 10742 10743 10743 10743 10744 10744 10744 10745 10745 10745 10745 10744 10745 10745 10745 10745 10744 10744 10743 10744 10744 10743 10742 10740 10742 10742 10740 10740 10738 10738 10737 10736 10736 10735 10734 10733 10731 10729 10727 10725 10724 10722 10723 10725 10723 10717 10714 10713 10713 10711 10709
10703 10705 10707 10709 10711 10713 10715 10717 10718 10719 10720 10722 10724 10725 10726 10727 10728 10729 10730 10731 10731 10732 10732 10732 10732 10732 10733 10734 10734 10735 10735 10736 10736 10736 10737 10737 10738 10738 10738 10739 10739 10740 10740 10740 10741 10741 10740 10740 10740 10740 10740 10740 10740 10739 10739 10738 10740 10739 10738 10736 10735 10737 10736 10734 10734 10733 10732 10731 10730 10730 10728 10728 10727 10725 10723 10721 10718 10716 10715 10718 10720 10714 10708 10706 10706 10706 10704 10701
10702 10704 10705 10707 10709 10711 10712 10714 10715 10717 10718 10719 10721 10722 10724 10725 10726 10727 10727 10728 10728 10729 10729 10729 10730 10730 10730 10730 10731 10731 10731 10732 10732 10732 10733 10733 10733 10734 10734 10735 10735 10735 10735 10736 10736 10736 10736 10736 10735 10735 10735 10735 10735 10735 10734 10734 10735 10734 10732 10731 10730 10731 10730 10728 10728 10727 10726 10725 10724 10723 10722 10721 10721 10720 10716 10714 10711 10707 10709 10713 10711 10705 10701 10700 10699 10697 10695 10694
10701 10702 10704 10705 10706 10708 10710 10711 10713 10714 10715 10717 10718 10719 10720 10721 10723 10724 10724 10725 10726 10726 10726 10726 10727 10727 10728 10728 10728 10728 10728 10728 10728 10728 10729 10729 10730 10730 10730 10730 10731 10731 10731 10731 10731 10731 10731 10731 10731 10730 10730 10730 10730 10730 10729 10729 10730 10728 10727 10726 10725 10725 10723 10722 10721 10720 10719 10718 10718 10716 10715 10714 10714 10713 10709 10707 10702 10699 10704 10706 10701 10697 10694 10692 10690 10688 10687 10686
10700 10701 10702 10703 10705 10706 10707 10708 10710 10711 10712 10713 10715 10716 10717 10718 10719 10720 10721 10721 10722 10722 10723 10723 10723 10724 10724 10725 10725 10725 10725 10725 10725 10725 10725 10725 10726 10726 10726 10726 10726 10726 10726 10726 10726 10726 10726 10726 10726 10725 10725 10724 10724 10724 10724 10724 10724 10722 10720 10720 10719 10718 10717 10716 10715 10714 10712 10712 10711 10710 10709 10707 10707 10705 10702 10699 10693 10693 10697 10696 10692 10690 10687 10684 10682 10680 10678 10677
10698 10699 10700 10701 10703 10704 10705 10706 10707 10708 10709 10710 10711 10712 10713 10714 10715 10716 10717 10718 10718 10719 10719 10720 10720 10720 10720 10721 10721 10721 10721 10721 10722 10722 10722 10722 10722 10722 10722 10721 10721 10721 10721 10721 10721 10721 10721 10721 10721 10720 10719 10719 10719 10718 10718 10718 10718 10716 10713 10714 10714 10712 10710 10709 10709 10707 10706 10705 10704 10704 10702 10700 10699 10697 10694 10689 10685 10686 10689 10687 10684 10681 10677 10676 10674 10672 10669 10667
10697 10698 10699 10700 10701 10702 10703 10704 10705 10706 10706 10707 10708 10709 10711 10712 10712 10713 10714 10715 10715 10716 10716 10716 10717 10717 10717 10717 10718 10718 10717 10718 10718 10719 10718 10718 10718 10717 10717 10716 10716 10716 10715 10715 10715 10715 10715 10715 10715 10714 10714 10713 10713 10712 10712 10711 10711 10709 10707 10707 10707 10705 10704 10702 10701 10700 10699 10699 10697 10697 10695 10693 10691 10689 10685 10678 10676 10679 10681 10679 10674 10670 10668 10668 10666 10664 10661 10657
10696 10697 10698 10698 10699 10700 10701 10702 10703 10704 10704 10705 10706 10707 10708 10709 10710 10710 10711 10712 10712 10713 10713 10714 10714 10714 10714 10714 10714 10714 10714 10714 10714 10714 10714 10714 10714 10714 10713 10712 10712 10711 10710 10710 10709 10709 10709 10709 10708 10708 10707 10707 10706 10706 10705 10705 10704 10702 10701 10701 10700 10699 10697 10695 10694 10692 10692 10691 10690 10690 10686 10685 10683 10681 10677 10668 10667 10671 10672 10669 10663 10660 10661 10659 10656 10654 10650 10646
10694 10695 10696 10697 10697 10698 10699 10699 10700 10701 10701 10702 10704 10705 10706 10706 10707 10708 10708 10709 10709 10710 10710 10710 10710 10710 10710 10710 10710 10710 10709 10710 10710 10710 10710 10710 10710 10709 10708 10708 10708 10707 10706 10706 10705 10704 10703 10703 10703 10702 10701 10701 10700 10700 10699 10699 10697 10696 10695 10694 10692 10691 10690 10688 10686 10685 10684 10684 10683 10681 10678 10676 10675 10673 10667 10660 10660 10662 10661 10658 10653 10653 10652 10649 10645 10641 10637 10635
10693 10694 10694 10694 10695 10695 10696 10696 10697 10697 10698 10700 10701 10702 10703 10703 10704 10705 10705 10705 10706 10706 10706 10706 10706 10706 10705 10705 10706 10705 10705 10705 10705 10705 10705 10705 10704 10704 10703 10702 10702 10702 10701 10701 10700 10699 10698 10698 10697 10696 10696 10694 10694 10694 10693 10692 10691 10690 10689 10687 10685 10683 10682 10680 10678 10677 10677 10676 10675 10672 10670 10668 10666 10663 10658 10654 10652 10650 10648 10646 10644 10644 10642 10638 10634 10629 10626 10623
10692 10692 10692 10692 10692 10693 10694 10694 10695 10696 10696 10697 10697 10698 10699 10699 10700 10701 10701 10701 10701 10702 10702 10702 10701 10701 10701 10701 10701 10701 10701 10701 10700 10699 10699 10699 10699 10698 10697 10696 10696 10695 10695 10694 10694 10693 10692 10691 10690 10690 10689 10687 10687 10686 10686 10685 10684 10683 10682 10680 10677 10675 10674 10672 10670 10669 10668 10667 10665 10663 10661 10659 10656 10653 10649 10645 10641 10638 10637 10636 10634 10633 10629 10625 10621 10617 10615 10612
10690 10690 10690 10690 10691 10691 10692 10692 10693 10693 10693 10693 10694 10694 10695 10695 10696 10696 10697 10697 10697 10697 10697 10697 10696 10696 10696 10696 10696 10695 10695 10695 10694 10694 10693 10693 10692 10691 10690 10690 10690 10689 10688 10687 10686 10686 10685 10684 10683 10682 10681 10680 10679 10678 10678 10677 10677 10676 10675 10673 10670 10667 10667 10665 10662 10659 10658 10657 10655 10654 10653 10650 10646 10643 10639 10634 10630 10627 10627 10626 10623 10620 10616 10612 10609 10606 10603 10601
10688 10688 10688 10688 10689 10689 10689 10689 10689 10690 10690 10691 10691 10691 10691 10692 10692 10692 10692 10692 10692 10692 10692 10691 10691 10690 10690 10690 10690 10688 10688 10688 10687 10688 10687 10686 10685 10685 10683 10683 10683 10682 10681 10680 10679 10678 10678 10676 10675 10674 10673 10672 10671 10670 10671 10670 10669 10668 10666 10665 10663 10659 10658 10656 10653 10650 10648 10646 10643 10643 10644 10640 10636 10633 10628 10622 10619 10617 10615 10613 10610 10607 10603 10601 10597 10594 10591 10588
10687 10687 10687 10687 10687 10686 10686 10687 10687 10687 10687 10687 10687 10688 10688 10688 10687 10687 10687 10687 10687 10686 10686 10685 10685 10684 10684 10684 10683 10682 10682 10681 10681 10681 10680 10679 10678 10678 10677 10675 10676 10675 10674 10673 10672 10671 10670 10668 10668 10666 10664 10664 10663 10662 10663 10662 10662 10658 10656 10656 10655 10652 10649 10644 10642 10640 10637 10634 10632 10632 10633 10630 10624 10622 10618 10612 10609 10605 10602 10598 10596 10594 10591 10589 10585 10582 10578 10575
10685 10685 10685 10685 10684 10684 10684 10684 10684 10684 10684 10684 10684 10684 10683 10683 10683 10682 10682 10682 10681 10681 10680 10679 10678 10678 10678 10677 10676 10676 10674 10674 10674 10673 10672 10672 10671 10670 10670 10668 10667 10667 10666 10665 10664 10663 10662 10661 10659 10658 10656 10655 10654 10655 10655 10655 10652 10648 10646 10647 10645 10642 10640 10635 10631 10628 10624 10622 10622 10620 10620 10618 10612 10610 10607 10602 10597 10593 10589 10585 10582 10580 10577 10575 10572 10568 10565 10561
10683 10683 10683 10682 10682 10682 10682 10682 10682 10682 10681 10681 10680 10680 10679 10679 10678 10678 10677 10677 10676 10675 10675 10674 10672 10671 10671 10670 10669 10668 10666 10665 10665 10665 10664 10663 10662 10662 10661 10660 10658 10658 10657 10656 10655 10654 10653 10653 10651 10649 10647 10645 10645 10646 10646 10645 10641 10638 10637 10637 10634 10631 10629 10626 10620 10616 10614 10613 10611 10608 10607 10605 10600 10598 10596 10590 10585 10580 10577 10574 10570 10567 10564 10561 10558 10554 10551 10548
10681 10681 10681 10680 10680 10680 10680 10680 10680 10679 10679 10678 10677 10677 10676 10675 10675 10674 10673 10672 10671 10670 10669 10668 10666 10665 10663 10662 10661 10660 10658 10656 10655 10655 10654 10654 10653 10652 10651 10650 10649 10648 10648 10647 10646 10645 10644 10643 10642 10640 10638 10636 10636 10635 10635 10634 10631 10628 10626 10625 10624 10621 10619 10615 10610 10606 10604 10603 10600 10597 10595 10593 10587 10586 10583 10578 10573 10567 10563 10561 10558 10555 10552 10548 10545 10541 10538 10534
10679 10679 10679 10679 10679 10679 10679 10679 10678 10678 10677 10676 10675 10674 10673 10672 10671 10670 10669 10667 10666 10665 10664 10662 10661 10659 10657 10655 10654 10652 10650 10648 10647 10646 10645 10644 10643 10641 10640 10640 10639 10638 10637 10637 10636 10635 10634 10633 10631 10629 10627 10627 10626 10624 10623 10623 10621 10618 10616 10614 10613 10610 10608 10604 10600 10598 10595 10592 10589 10586 10585 10582 10577 10574 10571 10567 10561 10554 10549 10546 10544 10542 10538 10535 10531 10528 10525 10521
10678 10678 10678 10677 10677 10677 10677 10677 10677 10676 10675 10674 10673 10672 10671 10669 10668 10667 10665 10663 10662 10660 10658 10657 10655 10653 10651 10649 10647 10646 10644 10642 10640 10638 10637 10635 10634 10632 10631 10630 10629 10628 10627 10626 10625 10624 10624 10622 10620 10619 10618 10616 10615 10613 10612 10611 10610 10609 10606 10604 10602 10600 10597 10592 10589 10588 10584 10582 10580 10575 10574 10572 10568 10563 10559 10555 10550 10544 10538 10534 10531 10527 10524 10521 10518 10515 10511 10507
10677 10677 10676 10676 10676 10676 10676 10676 10675 10674 10673 10672 10671 10670 10668 10667 10665 10663 10661 10659 10657 10655 10653 10651 10649 10647 10645 10643 10641 10639 10638 10636 10633 10631 10630 10628 10626 10625 10623 10622 10621 10619 10618 10617 10616 10615 10614 10613 10611 10609 10608 10606 10605 10603 10602 10600 10599 10598 10596 10595 10592 10590 10588 10582 10579 10577 10573 10571 10570 10564 10562 10561 10559 10555 10549 10543 10538 10533 10528 10524 10519 10514 10510 10507 10504 10501 10498 10493
10676 10676 10676 10676 10676 10675 10675 10674 10674 10673 10672 10671 10669 10668 10666 10664 10662 10660 10657 10655 10653 10650 10648 10646 10644 10641 10639 10638 10635 10633 10632 10629 10627 10625 10623 10622 10620 10618 10616 10615 10613 10612 10610 10609 10608 10606 10605 10604 10602 10601 10599 10597 10595 10593 10592 10590 10589 10587 10585 10584 10581 10578 10578 10574 10569 10566 10562 10560 10558 10554 10551 10551 10549 10545 10539 10533 10528 10523 10518 10513 10507 10502 10497 10493 10490 10486 10483 10479
10675 10675 10675 10675 10675 10674 10674 10673 10672 10671 10670 10668 10666 10665 10663 10660 10658 10656 10653 10650 10648 10645 10643 10640 10638 10635 10633 10631 10629 10627 10625 10623 10621 10619 10617 10616 10614 10612 10611 10609 10607 10606 10604 10602 10601 10599 10597 10596 10594 10592 10591 10589 10586 10584 10583 10581 10579 10576 10574 10573 10571 10567 10566 10564 10559 10556 10553 10550 10547 10543 10540 10541 10539 10533 10528 10524 10519 10513 10507 10501 10495 10490 10486 10481 10476 10472 10468 10464
10674 10674 10674 10674 10674 10673 10672 10672 10670 10669 10667 10666 10664 10661 10659 10656 10654 10651 10648 10646 10643 10640 10637 10635 10632 10629 10627 10625 10623 10621 10619 10616 10615 10612 10611 10610 10608 10607 10605 10604 10602 10600 10598 10596 10595 10593 10590 10588 10586 10585 10583 10580 10578 10576 10575 10572 10569 10566 10564 10562 10560 10557 10555 10554 10550 10546 10543 10539 10536 10533 10530 10530 10527 10521 10517 10514 10508 10502 10495 10489 10483 10478 10473 10468 10464 10459 10455 10451
10674 10674 10673 10673 10672 10672 10671 10670 10668 10667 10665 10662 10660 10658 10655 10652 10649 10646 10644 10641 10637 10634 10631 10628 10626 10623 10621 10619 10617 10615 10612 10610 10608 10606 10605 10604 10602 10601 10600 10597 10596 10594 10592 10590 10588 10586 10584 10581 10579 10577 10575 10573 10571 10569 10567 10565 10561 10557 10555 10553 10551 10548 10544 10543 10541 10537 10534 10529 10524 10521 10518 10519 10515 10510 10507 10501 10495 10489 10483 10477 10471 10465 10460 10455 10451 10447 10442 10438
10673 10673 10672 10672 10671 10670 10669 10668 10666 10664 10661 10659 10656 10653 10651 10648 10644 10641 10638 10635 10632 10628 10625 10622 10619 10617 10615 10612 10610 10608 10606 10604 10602 10601 10599 10598 10597 10595 10593 10591 10590 10588 10585 10584 10581 10579 10577 10574 10573 10570 10568 10566 10564 10561 10559 10557 10554 10549 10546 10544 10542 10539 10535 10532 10530 10528 10525 10520 10514 10508 10504 10507 10507 10500 10494 10487 10481 10476 10470 10464 10459 10453 10448 10443 10439 10434 10430 10425
10672 10672 10671 10670 10670 10668 10667 10665 10663 10660 10658 10655 10652 10650 10647 10643 10640 10636 10633 10630 10626 10622 10619 10616 10613 10611 10608 10606 10604 10602 10600 10598 10596 10595 10594 10592 10591 10589 10587 10585 10583 10581 10579 10577 10574 10572 10570 10567 10566 10563 10561 10559 10556 10554 10552 10549 10546 10541 10538 10535 10532 10529 10526 10522 10519 10516 10515 10510 10504 10496 10490 10494 10498 10491 10482 10474 10468 10463 10457 10451 10447 10441 10437 10432 10427 10422 10417 10413
10671 10671 10670 10669 10668 10666 10664 10662 10659 10657 10654 10652 10649 10646 10642 10639 10635 10631 10628 10624 10620 10617 10614 10611 10608 10605 10603 10601 10599 10597 10595 10593 10591 10590 10588 10587 10585 10584 10582 10580 10578 10576 10573 10571 10568 10565 10563 10561 10559 10557 10554 10552 10549 10547 10544 10541 10538 10534 10530 10527 10523 10520 10517 10514 10510 10506 10503 10500 10494 10485 10478 10480 10484 10479 10471 10463 10456 10451 10444 10439 10434 10430 10425 10420 10415 10410 10406 10401
10671 10670 10669 10667 10666 10664 10662 10659 10657 10654 10651 10648 10645 10641 10638 10634 10630 10627 10623 10619 10615 10612 10610 10607 10604 10601 10599 10597 10595 10593 10591 10588 10587 10585 10583 10582 10580 10578 10577 10575 10573 10570 10568 10566 10563 10559 10557 10554 10552 10550 10547 10545 10542 10540 10537 10533 10530 10526 10523 10519 10515 10512 10509 10505 10501 10496 10492 10489 10483 10475 10468 10467 10469 10466 10457 10450 10444 10438 10432 10427 10422 10417 10412 10408 10403 10398 10393 10388
10670 10668 10667 10665 10664 10661 10659 10657 10654 10651 10647 10644 10640 10637 10633 10629 10625 10622 10618 10615 10612 10609 10607 10605 10602 10599 10596 10593 10591 10590 10588 10585 10583 10581 10580 10578 10576 10574 10572 10570 10568 10565 10562 10560 10557 10554 10551 10549 10546 10543 10541 10539 10535 10532 10529 10525 10522 10519 10515 10511 10507 10504 10501 10497 10492 10487 10482 10478 10473 10466 10460 10456 10456 10454 10444 10437 10432 10426 10420 10415 10409 10404 10400 10395 10390 10384 10379 10374
10668 10667 10665 10664 10661 10659 10656 10653 10650 10647 10643 10640 10636 10632 10629 10625 10621 10617 10614 10612 10609 10606 10604 10602 10600 10597 10594 10591 10588 10586 10585 10583 10580 10578 10576 10574 10572 10570 10568 10566 10563 10560 10557 10555 10552 10550 10546 10544 10541 10538 10536 10533 10529 10525 10521 10517 10514 10511 10507 10504 10499 10495 10493 10489 10484 10478 10473 10468 10463 10457 10451 10445 10444 10441 10432 10424 10419 10413 10407 10401 10396 10391 10386 10381 10375 10370 10364 10359
10667 10665 10664 10661 10659 10656 10653 10650 10647 10643 10639 10636 10632 10628 10624 10620 10617 10614 10611 10609 10606 10604 10601 10599 10597 10594 10592 10589 10586 10584 10582 10580 10578 10575 10573 10571 10569 10567 10564 10562 10559 10556 10552 10549 10546 10545 10542 10539 10536 10533 10531 10527 10522 10518 10514 10510 10506 10503 10499 10497 10494 10489 10485 10482 10476 10470 10464 10459 10453 10446 10440 10434 10430 10426 10421 10414 10407 10400 10395 10389 10383 10378 10373 10367 10361 10356 10350 10344
10665 10664 10661 10658 10656 10653 10650 10646 10643 10639 10635 10632 10628 10624 10620 10617 10614 10611 10609 10607 10604 10602 10599 10596 10594 10591 10589 10586 10584 10581 10579 10576 10574 10572 10570 10568 10566 10563 10561 10558 10555 10552 10548 10543 10538 10536 10535 10533 10530 10528 10525 10521 10517 10511 10506 10501 10497 10493 10489 10486 10484 10481 10478 10474 10467 10462 10457 10450 10443 10435 10428 10424 10417 10411 10406 10401 10395 10388 10382 10376 10371 10365 10359 10354 10347 10341 10335 10329
10663 10661 10658 10656 10653 10650 10646 10643 10639 10635 10631 10627 10623 10620 10617 10614 10612 10609 10606 10604 10602 10599 10596 10593 10590 10587 10585 10583 10581 10579 10576 10574 10571 10569 10567 10565 10562 10560 10558 10555 10552 10550 10546 10541 10536 10530 10526 10525 10522 10519 10517 10513 10509 10505 10499 10494 10488 10484 10480 10475 10471 10468 10467 10465 10459 10454 10450 10445 10436 10425 10417 10412 10405 10398 10391 10385 10380 10374 10368 10362 10356 10351 10345 10338 10332 10325 10319 10313
10661 10659 10656 10653 10650 10646 10643 10639 10635 10631 10627 10623 10619 10616 10614 10611 10609 10606 10604 10601 10599 10596 10593 10590 10587 10584 10582 10580 10578 10576 10574 10571 10569 10567 10565 10562 10560 10558 10555 10552 10549 10547 10544 10540 10535 10528 10522 10519 10517 10513 10509 10505 10501 10496 10492 10487 10481 10476 10472 10466 10461 10455 10453 10451 10447 10443 10440 10439 10431 10417 10407 10401 10393 10387 10379 10370 10365 10359 10353 10347 10340 10335 10328 10321 10315 10308 10302 10297
10659 10656 10653 10650 10647 10643 10640 10636 10632 10627 10623 10619 10617 10614 10612 10609 10606 10604 10601 10598 10595 10593 10590 10588 10585 10582 10580 10578 10575 10573 10571 10569 10566 10564 10562 10559 10557 10554 10552 10549 10546 10542 10540 10536 10531 10525 10517 10513 10511 10508 10503 10499 10493 10488 10483 10478 10473 10468 10462 10457 10451 10445 10439 10435 10431 10425 10423 10425 10422 10409 10398 10390 10381 10375 10367 10357 10351 10344 10337 10332 10325 10318 10311 10304 10297 10291 10286 10282
10656 10654 10651 10647 10644 10640 10637 10632 10628 10624 10620 10617 10614 10612 10609 10607 10604 10601 10598 10596 10593 10590 10588 10586 10584 10581 10578 10576 10574 10571 10569 10566 10564 10561 10559 10556 10554 10551 10549 10546 10542 10538 10535 10531 10527 10522 10513 10506 10504 10501 10496 10490 10485 10480 10475 10470 10464 10459 10453 10446 10440 10434 10428 10422 10417 10411 10405 10405 10406 10397 10387 10378 10368 10362 10354 10343 10336 10329 10321 10315 10308 10301 10294 10287 10279 10274 10270 10265
10654 10651 10648 10644 10641 10637 10633 10629 10624 10621 10617 10615 10612 10609 10607 10604 10601 10598 10595 10593 10590 10588 10586 10583 10581 10579 10577 10574 10571 10569 10566 10564 10562 10559 10556 10554 10551 10548 10545 10541 10538 10534 10530 10526 10521 10517 10510 10501 10496 10494 10488 10482 10476 10471 10465 10460 10455 10450 10443 10437 10430 10424 10417 10408 10402 10398 10391 10388 10387 10382 10373 10363 10353 10346 10340 10330 10321 10313 10306 10299 10292 10285 10278 10270 10262 10258 10254 10248
10651 10648 10645 10642 10638 10633 10629 10625 10621 10618 10615 10613 10610 10607 10604 10601 10598 10596 10593 10590 10588 10585 10583 10581 10578 10576 10574 10572 10569 10567 10564 10561 10559 10556 10553 10550 10546 10543 10540 10536 10532 10529 10524 10520 10515 10510 10505 10497 10490 10487 10482 10474 10467 10462 10456 10450 10444 10438 10432 10425 10418 10413 10407 10398 10387 10380 10376 10372 10370 10368 10362 10351 10338 10329 10322 10315 10306 10298 10291 10285 10277 10270 10262 10254 10247 10243 10237 10230
10648 10645 10642 10639 10634 10630 10626 10622 10618 10616 10613 10610 10607 10605 10602 10599 10596 10593 10591 10588 10586 10583 10581 10579 10576 10574 10572 10570 10568 10566 10563 10559 10556 10552 10549 10546 10542 10538 10534 10530 10526 10522 10518 10514 10509 10503 10499 10492 10485 10479 10474 10468 10461 10454 10446 10440 10433 10426 10418 10410 10403 10396 10392 10385 10374 10363 10356 10351 10347 10348 10348 10340 10326 10314 10305 10296 10290 10283 10276 10269 10262 10254 10246 10239 10233 10227 10219 10212
10646 10643 10639 10635 10631 10626 10623 10619 10616 10614 10611 10608 10605 10602 10599 10597 10594 10591 10589 10586 10584 10581 10579 10576 10574 10572 10570 10568 10565 10563 10560 10557 10553 10549 10545 10542 10538 10534 10529 10524 10520 10516 10511 10506 10501 10496 10490 10485 10479 10471 10464 10458 10452 10446 10438 10432 10426 10418 10410 10402 10394 10385 10377 10371 10363 10350 10339 10331 10324 10321 10324 10322 10311 10300 10290 10282 10274 10267 10260 10253 10246 10238 10230 10223 10216 10209 10201 10195
10643 10639 10635 10631 10627 10623 10620 10617 10614 10611 10608 10606 10603 10600 10597 10595 10592 10589 10587 10585 10582 10580 10578 10575 10573 10571 10568 10565 10562 10559 10557 10553 10549 10545 10541 10537 10533 10529 10524 10519 10514 10509 10504 10499 10493 10488 10482 10477 10472 10465 10457 10449 10444 10436 10428 10421 10414 10407 10399 10392 10384 10376 10367 10359 10353 10342 10328 10317 10307 10300 10299 10298 10291 10281 10273 10267 10259 10251 10243 10236 10228 10221 10213 10206 10199 10191 10184 10179
10640 10636 10632 10628 10624 10620 10617 10614 10611 10609 10606 10604 10601 10598 10595 10593 10590 10588 10586 10583 10581 10579 10577 10575 10572 10569 10566 10562 10559 10556 10552 10549 10545 10541 10537 10532 10528 10523 10518 10513 10508 10503 10498 10492 10486 10480 10475 10469 10463 10456 10447 10440 10435 10427 10417 10409 10402 10394 10384 10376 10367 10359 10350 10342 10336 10330 10320 10308 10298 10289 10282 10277 10272 10263 10255 10249 10241 10233 10226 10218 10209 10202 10194 10186 10179 10172 10165 10159
10637 10633 10629 10625 10621 10618 10615 10612 10610 10607 10604 10601 10599 10596 10594 10591 10589 10586 10584 10582 10580 10578 10576 10573 10570 10567 10564 10560 10556 10552 10549 10545 10541 10537 10532 10527 10523 10518 10512 10507 10502 10496 10490 10485 10478 10472 10466 10461 10456 10448 10438 10429 10422 10415 10404 10394 10387 10381 10373 10364 10355 10346 10337 10329 10321 10314 10307 10297 10288 10280 10271 10263 10255 10247 10239 10232 10225 10217 10209 10202 10193 10186 10178 10170 10163 10155 10148 10141
10634 10630 10627 10623 10619 10616 10613 10611 10608 10605 10602 10599 10597 10594 10592 10589 10587 10585 10583 10581 10579 10577 10574 10571 10568 10564 10561 10557 10553 10549 10545 10541 10537 10533 10528 10523 10517 10512 10506 10501 10495 10489 10482 10475 10469 10462 10455 10449 10446 10441 10433 10425 10417 10410 10400 10388 10377 10369 10363 10355 10346 10336 10326 10317 10308 10300 10292 10282 10271 10264 10258 10249 10240 10233 10226 10218 10211 10203 10195 10187 10179 10171 10164 10156 10149 10141 10133 10126
10631 10627 10624 10620 10617 10614 10611 10609 10606 10603 10600 10598 10595 10593 10590 10588 10586 10584 10582 10580 10577 10574 10571 10567 10564 10560 10557 10553 10549 10545 10541 10536 10532 10528 10523 10517 10511 10506 10500 10494 10488 10481 10474 10467 10459 10452 10443 10436 10431 10427 10420 10414 10408 10402 10394 10383 10371 10360 10352 10343 10334 10324 10313 10303 10295 10287 10281 10272 10260 10250 10246 10239 10229 10221 10214 10206 10198 10190 10181 10172 10163 10154 10147 10139 10132 10125 10117 10110
10628 10625 10621 10618 10615 10612 10609 10607 10604 10601 10599 10596 10594 10592 10589 10587 10585 10583 10581 10578 10575 10572 10568 10564 10561 10557 10553 10549 10544 10540 10536 10531 10526 10522 10517 10511 10505 10499 10493 10487 10480 10473 10466 10459 10451 10443 10434 10424 10417 10412 10404 10395 10389 10381 10373 10365 10356 10346 10337 10329 10320 10311 10302 10292 10284 10276 10270 10264 10252 10240 10233 10227 10218 10208 10200 10192 10184 10176 10167 10158 10150 10141 10133 10124 10116 10109 10102 10095
10626 10622 10619 10616 10613 10610 10608 10605 10602 10600 10597 10595 10593 10591 10588 10586 10584 10582 10580 10577 10574 10570 10566 10562 10558 10554 10549 10544 10540 10535 10530 10526 10521 10515 10510 10505 10499 10492 10486 10480 10473 10466 10458 10451 10443 10435 10425 10415 10405 10398 10391 10382 10374 10366 10357 10348 10340 10332 10324 10317 10309 10299 10289 10280 10271 10265 10258 10251 10243 10232 10222 10214 10206 10197 10188 10180 10173 10165 10155 10146 10138 10130 10121 10112 10103 10095 10087 10080
10624 10620 10617 10614 10611 10609 10606 10603 10601 10598 10596 10594 10592 10589 10588 10586 10584 10581 10578 10575 10571 10568 10564 10560 10556 10552 10547 10542 10537 10531 10525 10520 10515 10509 10504 10499 10493 10486 10480 10473 10466 10459 10451 10443 10435 10427 10418 10408 10397 10388 10380 10371 10363 10355 10346 10337 10329 10321 10314 10306 10299 10289 10279 10268 10259 10254 10247 10236 10228 10221 10211 10201 10192 10183 10174 10165 10158 10150 10141 10131 10123 10115 10108 10099 10090 10082 10074 10066
10621 10618 10615 10613 10610 10607 10604 10602 10599 10597 10595 10592 10590 10588 10587 10584 10582 10579 10575 10572 10568 10565 10561 10557 10553 10549 10545 10540 10535 10529 10523 10517 10511 10505 10499 10493 10487 10480 10474 10467 10460 10452 10444 10436 10428 10420 10411 10401 10390 10380 10371 10362 10353 10345 10337 10328 10319 10312 10304 10297 10289 10279 10269 10257 10247 10242 10236 10224 10213 10205 10197 10188 10179 10169 10160 10151 10143 10134 10124 10115 10107 10099 10092 10085 10076 10068 10060 10052
10619 10616 10613 10611 10608 10605 10603 10600 10598 10596 10593 10591 10589 10587 10585 10582 10579 10576 10572 10569 10566 10562 10558 10554 10550 10546 10541 10536 10531 10526 10521 10515 10508 10502 10495 10489 10482 10475 10468 10461 10454 10446 10438 10429 10421 10412 10403 10394 10383 10372 10362 10353 10345 10337 10329 10319 10310 10303 10295 10287 10279 10269 10260 10248 10238 10233 10229 10219 10207 10198 10189 10181 10172 10162 10152 10142 10132 10122 10112 10104 10096 10086 10079 10072 10064 10055 10047 10039
10617 10614 10611 10609 10606 10604 10601 10599 10597 10594 10593 10591 10588 10586 10583 10580 10577 10574 10570 10566 10563 10559 10555 10550 10546 10542 10537 10532 10527 10521 10516 10510 10504 10497 10491 10484 10477 10470 10462 10455 10447 10439 10430 10422 10413 10404 10395 10385 10376 10366 10355 10346 10338 10330 10322 10314 10304 10295 10287 10279 10271 10262 10253 10241 10228 10223 10220 10212 10203 10193 10183 10174 10165 10156 10146 10135 10124 10114 10104 10096 10089 10079 10069 10061 10053 10045 10036 10028
10615 10612 10610 10607 10604 10602 10600 10597 10595 10593 10592 10589 10587 10584 10581 10578 10575 10571 10568 10564 10560 10556 10552 10547 10542 10537 10532 10527 10521 10516 10511 10505 10499 10492 10485 10478 10471 10464 10456 10448 10440 10432 10423 10414 10405 10395 10386 10378 10370 10361 10351 10341 10331 10323 10314 10305 10296 10287 10279 10273 10266 10257 10248 10236 10222 10215 10210 10201 10193 10185 10174 10164 10155 10146 10138 10129 10118 10107 10096 10088 10082 10072 10062 10053 10044 10036 10028 10019